Location: ??????
(55.7522°N, 37.6156°E)
Time: 18:23:53
(UTC+00:00)

USA 59 Rocket - Pass Details

Date: 14 June 2025
Orbit: 372 x 1694 km, 63.3° (Epoch: 12 July)

Event Time Altitude Azimuth Distance (km) Brightness Sun altitude
Rises 19:24:15 0° 306° (NW) 2,261 4.3 -6.5°
Reaches altitude 10° 19:26:15 10° 316° (NW) 1,450 3.5 -6.7°
Maximum altitude 19:29:07 34° 25° (NNE) 747 0.9 -6.9°
Drops below altitude 10° 19:32:35 10° 92° (E) 1,748 2.1 -7.1°
Sets 19:35:13 0° 101° (ESE) 2,824 3.1 -7.3°
